Regional Weather Roundup
Issued by NWS

Home | Current Version | Previous Version | Graphics & Text | Print | Product List | Glossary On
Versions: 1 2 3 4 5 6 7 8 9 10 11 12 13 14 15 16 17 18 19 20 21 22 23 24 25 26 27 28 29 30 31 32 33 34 35 36 37 38 39 40 41 42 43 44 45 46 47 48 49 50
000
ASUS45 KTFX 041010
RWRMT
MONTANA REGIONAL WEATHER ROUNDUP
NATIONAL WEATHER SERVICE GREAT FALLS MT
400 AM MDT SAT JUL 04 2015

NOTE: "FAIR" INDICATES FEW OR NO CLOUDS BELOW 12000 FEET WITH NO
SIGNIFICANT WEATHER AND/OR OBSTRUCTIONS TO VISIBILITY.

MTZ001>007-043-041100-
WEST OF THE DIVIDE

CITY           SKY/WX    TMP DP  RH WIND       PRES   REMARKS
KALISPELL      SUNNY     56  47  71 CALM      29.82S
MISSOULA       CLEAR     62  45  53 CALM      29.89S
BUTTE          CLEAR     52  38  58 CALM      30.04S
MULLAN PASS    CLEAR     68  34  28 NW3       30.06F
DEER LODGE       N/A     57  45  62 CALM      30.01S
EUREKA           N/A     63  46  55 CALM      29.81R
HAMILTON         N/A     64  45  48 S10       29.92R
PLAINS           N/A     59  45  59 CALM      29.86S
RONAN            N/A     58  51  77 CALM      29.90F
THOMPSON FALLS   N/A     58  44  59 CALM      29.89R
$$

MTZ008-052>055-041100-
SOUTHWEST MONTANA

CITY           SKY/WX    TMP DP  RH WIND       PRES   REMARKS
BOZEMAN        CLEAR     54  46  74 SE8       29.94R
DILLON         CLEAR     62  36  37 S9        30.00S
W YELLOWSTONE  CLEAR     43  39  87 CALM      30.11S
THREE FORKS      N/A     54  54 100 CALM      29.93S
$$

MTZ009-010-012-014-046-048-049-054-041100-
EAST SLOPES AND CENTRAL MONTANA

CITY           SKY/WX    TMP DP  RH WIND       PRES   REMARKS
CUT BANK       CLEAR     59  43  55 SW6       29.83F
GREAT FALLS    CLEAR     60  46  59 SW9       29.83S
MALMSTROM AFB  CLEAR     69  46  43 W10       29.83R
HELENA         CLEAR     68  41  37 CALM      29.90R
CONRAD           N/A     55  51  86 CALM      29.87S
$$

MTZ011-013-016-021-045-047-050-051-041100-
NORTH CENTRAL MONTANA

CITY           SKY/WX    TMP DP  RH WIND       PRES   REMARKS
HAVRE          CLEAR     58  47  66 SW3       29.73S
LEWISTOWN      CLEAR     61  50  67 S8        29.86S
CHINOOK          N/A     68  52  56 N7        29.72F
FORT BENTON      N/A     66  50  55 CALM      29.78S
$$

MTZ017>020-022>027-061-062-041100-
NORTHEAST MONTANA

CITY           SKY/WX    TMP DP  RH WIND       PRES   REMARKS
GLASGOW        CLEAR     65  55  70 E10       29.73F
JORDAN           N/A     59  50  72 CALM      29.78S
SIDNEY         CLEAR     63  57  82 S3        29.78F
WOLF POINT     CLEAR     62  59  90 NE7       29.75F FOG
MALTA            N/A    N/A N/A N/A MISG      29.73
PLENTYWOOD       N/A     66  63  88 S6        29.77F
POPLAR           N/A    N/A N/A N/A N6        29.76F
SCOBEY           N/A     62  58  87 SE5       29.77F
$$

MTZ028>42-056>058-041100-
SOUTHCENTRAL AND SOUTHEAST MONTANA

CITY           SKY/WX    TMP DP  RH WIND       PRES   REMARKS
BAKER          PTCLDY    62  57  83 E8        29.85S
BILLINGS       CLEAR     69  53  56 SW8       29.85S
LIVINGSTON     CLEAR     54  45  71 CALM      29.94R
MILES CITY     CLEAR     65  60  84 NE3       29.79F
FORSYTH          N/A     64  55  72 CALM      29.79S
LAUREL           N/A     61  49  64 W2        29.86R
ROUNDUP          N/A     65  49  56 W5        29.77F
$$

REGIONAL REPORTS...DAKOTAS

CITY           SKY/WX    TMP DP  RH WIND       PRES   REMARKS
WILLISTON      CLEAR     70  61  73 S3        29.79F HAZE
MINOT          CLEAR     63  60  90 CALM      29.80F FOG
DICKINSON      PTCLDY    63  59  87 S8        29.83F FOG
BEACH          PTSUNNY   63  63 100 SE7       29.84S
CROSBY         FAIR      64  64 100 S13       29.78F FOG
BISMARCK       PTCLDY    64  63  96 E6        29.86S FOG
GRAND FORKS    CLOUDY    59  57  93 S6        29.87F FOG
FARGO          CLEAR     65  60  84 SE6       29.89F HAZE
BUFFALO SD       N/A     63  59  87 SE5       29.81S
RAPID CITY     MOCLDY    63  59  87 E6        29.89F
$$

REGIONAL REPORTS...WYOMING/IDAHO/WASHINGTON

CITY           SKY/WX    TMP DP  RH WIND       PRES   REMARKS
GILLETTE       CLEAR     63  57  81 S10       29.91F
SHERIDAN       CLEAR     58  53  84 CALM      29.87S
BUFFALO WY     CLEAR     64  49  57 SW8       29.94F
CODY           CLEAR     66  48  52 SW8       29.96S
YELLOWSTONE LA   N/A     45  39  79 CALM      30.21S
IDAHO FALLS    PTCLDY    59  54  83 SW3       29.95S
SALMON         CLEAR     57  43  58 CALM      29.95S
BOISE          MOCLDY    77  38  24 S7        29.82R
SPOKANE        PTCLDY    75  36  24 SE5       29.80R
$$

REGIONAL REPORTS...ALBERTA

CITY           SKY/WX    TMP DP  RH WIND       PRES   REMARKS
EDMONTON       PTCLDY    61  39  44 N8        29.87S
CALGARY        MOCLDY    61  48  63 N9        29.96R
LETHBRIDGE     CLEAR     59  55  88 W20       29.83R
MEDICINE HAT   CLOUDY    66  57  72 N13       29.75S
CARDSTON         N/A     59  54  82 NW7         N/A
ONEFOUR          N/A     64  43  45 N7          N/A
$$

REGIONAL REPORTS...SASKATCHEWAN

CITY           SKY/WX    TMP DP  RH WIND       PRES   REMARKS
SWIFT CURRENT  MOCLDY    61  52  72 S9        29.71F
REGINA         CLOUDY    64  64 100 E9        29.76F
SASKATOON      MOCLDY    63  57  82 NW12      29.76R
CYPRESS HILLS    N/A     64  45  48 S1          N/A
ROCKGLEN         N/A     64  57  77 S12         N/A
$$



USA.gov is the U.S. government's official web portal to all federal, state and local government web resources and services.